Finger Lake Weather Center

Moon Phase Calendar



Finger Lake Water Level
Online Cameras

 


      

Current Conditions in Vandiver
12/2/2020 3:30:48 AM

26°F
Feels Like 20
Clear
Humidity
79%
Pressure
30.33"
Wind
2 mph (NNW)
Dew Point
21°F
UV Index
0/10 (Low)
Visibility
6 mi

Hourly Forecast

Date & Time Wed, Dec 2
3:00 AM
Wed, Dec 2
4:00 AM
Wed, Dec 2
5:00 AM
Wed, Dec 2
6:00 AM
Wed, Dec 2
7:00 AM
Wed, Dec 2
8:00 AM
Wed, Dec 2
9:00 AM
Wed, Dec 2
10:00 AM
Wed, Dec 2
11:00 AM
Wed, Dec 2
12:00 PM
Wed, Dec 2
1:00 PM
Wed, Dec 2
2:00 PM
Wed, Dec 2
3:00 PM
Wed, Dec 2
4:00 PM
Wed, Dec 2
5:00 PM
Wed, Dec 2
6:00 PM
Wed, Dec 2
7:00 PM
Wed, Dec 2
8:00 PM
Wed, Dec 2
9:00 PM
Wed, Dec 2
10:00 PM
Wed, Dec 2
11:00 PM
Thu, Dec 3
12:00 AM
Thu, Dec 3
1:00 AM
Thu, Dec 3
2:00 AM
Thu, Dec 3
3:00 AM
Thu, Dec 3
4:00 AM
Thu, Dec 3
5:00 AM
Thu, Dec 3
6:00 AM
Thu, Dec 3
7:00 AM
Thu, Dec 3
8:00 AM
Thu, Dec 3
9:00 AM
Thu, Dec 3
10:00 AM
Thu, Dec 3
11:00 AM
Thu, Dec 3
12:00 PM
Thu, Dec 3
1:00 PM
Thu, Dec 3
2:00 PM
Thu, Dec 3
3:00 PM
Thu, Dec 3
4:00 PM
Thu, Dec 3
5:00 PM
Thu, Dec 3
6:00 PM
Thu, Dec 3
7:00 PM
Thu, Dec 3
8:00 PM
Thu, Dec 3
9:00 PM
Thu, Dec 3
10:00 PM
Thu, Dec 3
11:00 PM
Fri, Dec 4
12:00 AM
Fri, Dec 4
1:00 AM
Fri, Dec 4
2:00 AM
Condition
Clear

Clear

Clear

Clear

Clear

Clear

Clear

Clear

Clear

Clear

Clear

Clear

Clear

Clear

Clear

Clear

Clear

Clouds

Clouds

Clouds

Clouds

Clouds

Clouds

Clouds

Clouds

Clouds

Clouds

Clouds

Clouds

Clouds

Clouds

Clouds

Clouds

Clouds

Clouds

Clouds

Clouds

Clouds

Clouds

Clouds

Clouds

Clouds

Clouds

Clouds

Clouds

Clouds

Clouds

Clouds
Temperature 26°F28°F29°F29°F30°F34°F38°F43°F47°F50°F52°F52°F51°F46°F40°F39°F38°F36°F36°F35°F34°F34°F33°F33°F32°F31°F31°F32°F34°F36°F39°F44°F46°F48°F50°F51°F51°F48°F45°F44°F44°F44°F44°F44°F45°F44°F45°F47°F
Feels Like 20°F22°F23°F23°F23°F27°F32°F36°F40°F44°F46°F46°F46°F41°F35°F33°F32°F31°F30°F29°F29°F28°F28°F27°F26°F26°F25°F25°F27°F30°F32°F37°F38°F40°F42°F43°F43°F42°F38°F37°F38°F38°F38°F39°F39°F40°F40°F42°F
Cloudiness 1%1%0%0%0%0%0%0%0%0%0%0%0%0%0%0%0%17%19%18%34%40%40%65%68%62%69%74%100%100%100%100%100%100%100%100%98%98%98%99%100%100%100%100%100%100%100%100%
Visibility 6 mi6 mi6 mi6 mi6 mi6 mi6 mi6 mi6 mi6 mi6 mi6 mi6 mi6 mi6 mi6 mi6 mi6 mi6 mi6 mi6 mi6 mi6 mi6 mi6 mi6 mi6 mi6 mi6 mi6 mi6 mi6 mi6 mi6 mi6 mi6 mi6 mi6 mi6 mi6 mi6 mi6 mi6 mi6 mi6 mi6 mi6 mi6 mi
Precipitation 0%0%0%0%0%0%0%0%0%0%0%0%0%0%0%0%0%0%0%0%0%0%0%0%0%0%0%0%0%0%0%0%0%0%0%0%0%0%0%0%0%0%0%0%0%0%0%0%
Humidity 79%84%87%88%88%79%67%56%48%43%41%41%45%55%68%70%74%78%80%83%84%86%89%88%91%92%92%91%86%79%71%61%56%51%48%48%52%62%73%79%82%86%89%89%91%94%94%92%
Dew Point 21°F24°F26°F26°F27°F19°F19°F19°F19°F20°F22°F23°F26°F28°F25°F25°F24°F24°F24°F24°F24°F24°F24°F24°F23°F23°F23°F24°F24°F25°F27°F28°F29°F30°F30°F32°F34°F36°F37°F38°F39°F40°F41°F42°F42°F43°F43°F45°F
Pressure 30.33"30.33"30.39"30.39"30.39"30.42"30.42"30.42"30.39"30.36"30.33"30.33"30.3"30.33"30.33"30.33"30.33"30.33"30.33"30.33"30.33"30.33"30.33"30.33"30.33"30.3"30.3"30.3"30.3"30.33"30.33"30.33"30.3"30.27"30.21"30.18"30.18"30.18"30.18"30.18"30.18"30.18"30.15"30.15"30.15"30.12"30.12"30.09"
Wind Speed 1.7 mph2 mph3.2 mph3.2 mph3.4 mph5 mph4.7 mph5.1 mph4.9 mph4 mph3.5 mph3.4 mph3.1 mph3.2 mph2 mph3 mph3.8 mph3.1 mph3.9 mph4.1 mph3.1 mph3.2 mph2.3 mph4.1 mph3.6 mph2.7 mph3.3 mph4.3 mph4.4 mph4.2 mph5.1 mph5.5 mph6.6 mph7.2 mph8.2 mph7.2 mph7.7 mph6.8 mph6.6 mph6.7 mph6.6 mph6.2 mph6.1 mph6.3 mph6.2 mph5.7 mph6.6 mph6.1 mph
Wind
Direction
315°
NW
336°
NNW
286°
WNW
346°
NNW
352°
N

N
22°
NNE
26°
NNE
19°
NNE
25°
NNE
36°
NE
50°
NE
78°
ENE
81°
E
78°
ENE
72°
ENE
71°
ENE
72°
ENE
73°
ENE
70°
ENE
87°
E
60°
ENE
66°
ENE
71°
ENE
73°
ENE
69°
ENE
55°
NE
78°
ENE
88°
E
85°
E
101°
E
114°
ESE
129°
SE
133°
SE
131°
SE
140°
SE
136°
SE
142°
SE
132°
SE
126°
SE
133°
SE
136°
SE
129°
SE
138°
SE
136°
SE
138°
SE
138°
SE
139°
SE

Daily Forecast

Date High Low Precip. Humidity
Today
Dec 2

Clear
52 °F
26 °F
0%
48%
Thursday
Dec 3

Clouds
51 °F
31 °F
0%
56%
Friday
Dec 4

Rain
56 °F
44 °F
100%
99%
Saturday
Dec 5

Clouds
50 °F
38 °F
32%
59%
Sunday
Dec 6

Clear
54 °F
36 °F
0%
55%
Monday
Dec 7

Clear
48 °F
36 °F
0%
56%
Tuesday
Dec 8

Clear
45 °F
33 °F
0%
60%
Wednesday
Dec 9

Clear
52 °F
31 °F
0%
51%
Thursday
Dec 10

Clear
57 °F
35 °F
0%
47%
Friday
Dec 11

Clouds
52 °F
44 °F
1%
85%
Saturday
Dec 12

Clouds
63 °F
48 °F
0%
67%
Sunday
Dec 13

Snow
66 °F
31 °F
100%
85%
Monday
Dec 14

Clear
42 °F
27 °F
0%
60%
Tuesday
Dec 15

Rain
43 °F
27 °F
100%
60%
Wednesday
Dec 16

Snow
38 °F
20 °F
100%
90%
Thursday
Dec 17

Clouds
31 °F
16 °F
0%
69%


Temperature 8-14 Day Outlook



Precipitation 8-14 Day Outlook




Quick Links
Finger Lake News
Finger Lake Photos
Finger Lake Videos




About Us
Contact Us
Site Map
Search Site
Advertise With Us
   
Finger-AL.LakesOnline.com
THE FINGER LAKE WEBSITE

Copyright 2020, Lakes Online
Privacy    |    Legal